Location: Alexandria
(38.8050°N, 77.0470°W)
Time: 10:50:54
(UTC-04:00)

Envisat - Pass Details

Date: 13 February 2018
Orbit: 764 x 766 km, 98.2° (Epoch: 20 May)

Event Time Altitude Azimuth Distance (km) Brightness Sun altitude
Exits shadow 20:30:59 13° 208° (SSW) 2,097 5.4 -33.1°
Maximum altitude 20:34:46 29° 264° (W) 1,365 4.7 -33.8°
Drops below altitude 10° 20:39:11 10° 325° (NW) 2,307 5.9 -34.6°
Sets 20:41:47 0° 336° (NNW) 3,238 6.7 -35.1°
